Weather Roundup
Issued by NWS

Home | Current Version | Previous Version | Text Only | Print | Product List | Glossary On
Versions: 1 2 3 4 5 6 7 8 9 10 11 12 13 14 15 16 17 18 19 20 21 22 23 24 25 26 27 28 29 30 31 32 33 34 35 36 37 38 39 40 41 42 43 44 45 46 47 48 49 50
089
NZUS93 KARX 181010
HRRWXR

CURRENT HOURLY OBSERVATIONS ACROSS
MUCH OF THE UPPER MISSISSIPPI VALLEY
NATIONAL WEATHER SERVICE LA CROSSE WI
500 AM CDT FRI AUG 18 2017


...SOUTHEAST MINNESOTA...


CITY           SKY/WX    TMP DP  RH WIND       PRES   REMARKS
ROCHESTER      CLEAR     57  57 100 NW8       29.89S
ROCHESTER/MAYO FAIR      60  59  97 W9        29.88F
WINONA         CLEAR     63  57  82 NW6       29.86R
AUSTIN         CLEAR     59  57  94 NW5       29.89R
ALBERT LEA     PTCLDY    63  61  94 CALM      29.89F FOG
DODGE CENTER   CLEAR     59  57  94 NW5       29.88S
PRESTON        CLEAR     58  56  91 NW6       29.88F
OWATONNA       FOG       55  54  94 CALM      29.89S VSB 1/4
FARIBAULT      CLEAR     59  57  94 CALM      29.89F
$$

...ELSEWHERE IN MINNESOTA...


CITY           SKY/WX    TMP DP  RH WIND       PRES   REMARKS
MINNEAPOLIS    CLEAR     61  58  90 CALM      29.87R
INTNL FALLS    FOG       48  47  96 CALM      29.83S VSB 1/4
DULUTH         CLOUDY    56  56 100 NW9       29.82S FOG
RED WING       CLEAR     59  55  88 CALM      29.85S FOG
REDWOOD FALLS  CLOUDY    61  57  87 S3        29.87F
MANKATO        MOCLDY    59  57  94 W3        29.89S FOG
WORTHINGTON    CLOUDY    62  59  90 N7        29.90F
FAIRMONT       CLOUDY    61  60  97 CALM      29.91R
$$

...SOUTHWEST WISCONSIN...


CITY           SKY/WX    TMP DP  RH WIND       PRES   REMARKS
LA CROSSE      MOCLDY    68  62  81 NW8       29.83R
PRAIRIE DU CHI CLEAR     64  58  83 W9        29.84S
BOSCOBEL       MOCLDY    64  62  93 S6        29.83R
LONE ROCK      CLOUDY    65  64  97 W7        29.81R
PLATTEVILLE    CLEAR     61  61 100 W6        29.84S
FORT MC COY    PTCLDY    60  58  92 W6        29.84R
CAMP DOUGLAS   CLOUDY    64  60  88 W9        29.80S
MAUSTON-NEW LI CLOUDY    64  60  86 W6        29.79F
VIROQUA        CLOUDY    64  64 100 NW3       29.84R
WIS DELLS      CLOUDY    64  57  77 NW7       29.80S
$$

...ELSEWHERE IN WISCONSIN...


CITY           SKY/WX    TMP DP  RH WIND       PRES   REMARKS
MILWAUKEE      CLOUDY    69  61  75 W14G20    29.74S
MADISON        CLOUDY    65  62  90 VRB5      29.79R
GREEN BAY      CLEAR     62  62 100 W12       29.69R
EAU CLAIRE     CLEAR     59  57  93 W7        29.82R
BLACK RVR FLS  CLOUDY    63  61  93 W6        29.82R
MEDFORD        CLOUDY    60  58  92 NW8       29.78F
WAUSAU         CLOUDY    62  59  90 NW13G22   29.75R
WIS RAPIDS     CLOUDY    63  60  90 NW9       29.79S
MARSHFIELD     CLOUDY    62  58  86 NW10      29.78S
RICE LAKE      CLEAR     57  56  96 W5        29.85R
$$

...NORTHEAST IOWA...


CITY           SKY/WX    TMP DP  RH WIND       PRES   REMARKS
WATERLOO       CLEAR     58  57  97 W6        29.87S
DUBUQUE        CLEAR     61  59  93 W7        29.86R
DECORAH        CLEAR     61  59  94 NW6       29.86F
MASON CITY     CLOUDY    59  57  93 W6        29.91F
CHARLES CITY   CLEAR     57  57 100 W7        29.89R
OELWEIN        CLEAR     59  59 100 NW5       29.88S
$$

...ELSEWHERE IN IOWA...


CITY           SKY/WX    TMP DP  RH WIND       PRES   REMARKS
DES MOINES     CLOUDY    63  60  90 CALM      29.90R
IOWA CITY      CLEAR     61  59  93 CALM      29.88F
FORT DODGE     CLOUDY    57  55  94 E3        29.91F
MARSHALLTOWN   CLOUDY    57  57 100 NW7       29.90R
CEDAR RAPIDS   CLEAR     58  58 100 W5        29.86F
$$

...NORTHERN ILLINOIS...


CITY           SKY/WX    TMP DP  RH WIND       PRES   REMARKS
CHICAGO-OHARE  PTCLDY    68  62  81 W7        29.79R
CHICAGO-MIDWAY PTCLDY    68  64  87 W9        29.80R
MOLINE         CLEAR     66  61  84 W6        29.86S
ROCKFORD       PTCLDY    64  62  93 W8        29.82S
PEORIA         CLEAR     65  63  93 W3        29.87S
$$

NOTE: "FAIR" INDICATES FEW OR NO CLOUDS BELOW 12,000 FEET WITH NO
SIGNIFICANT WEATHER AND/OR OBSTRUCTIONS TO VISIBILITY. WIND
SPEEDS ARE IN MILES-PER-HOUR.




USA.gov is the U.S. government's official web portal to all federal, state and local government web resources and services.